Notices

What's New in latest Release from April 7th, 2021:

- Updated Glossary, including Speed of Maximum Gust, and Total Hourly Precipitation

- Updated national and regional climate services offices contacts and prices information

- Addition of station inventory lists for 1981-2010, 1971-2000, and 1961-1990 Normals.

If you haven't already, please take our survey and provide feedback about our website: https://eccc.sondage-survey.ca/f/LanguageSelection.aspx?s=442ca660-fcf1-47c0-95a9-59707d6fd709

Hourly Data Report for January 12, 2004

TORONTO CITY
ONTARIO

43°40'00.000" N
79°24'00.000" W
112.50 m
6158355
71508
XTO

Download Data

Hourly Data (January 2004)
Hourly Data Report for January 12, 2004
TIME
LST
Temp Definition
°C
Dew Point Definition
°C
Rel Hum Definition
%
Precip. Amount Definition
mm

Wind Dir Definition
10's deg

Wind Spd Definition
km/h
Visibility Definition
km
Stn Press Definition
kPa
Hmdx Definition


Wind Chill Definition


Weather Definition


00:00 -0.4 -0.9 96   LegendMM LegendMM LegendMM 99.52     LegendNANA
01:00 -0.3 -1.0 95   LegendMM LegendMM LegendMM 99.49     LegendNANA
02:00 -0.2 -1.1 94   LegendMM LegendMM LegendMM 99.46     LegendNANA
03:00 -0.2 -1.2 93   LegendMM LegendMM LegendMM 99.49     LegendNANA
04:00 -0.2 -1.1 94   LegendMM LegendMM LegendMM 99.49     LegendNANA
05:00 -0.2 -1.0 94   LegendMM LegendMM LegendMM 99.52     LegendNANA
06:00 -0.3 -1.2 94   LegendMM LegendMM LegendMM 99.54     LegendNANA
07:00 -0.2 -1.3 92   LegendMM LegendMM LegendMM 99.62     LegendNANA
08:00 -0.1 -1.3 92   LegendMM LegendMM LegendMM 99.71     LegendNANA
09:00 -0.2 -1.9 88   LegendMM LegendMM LegendMM 99.79     LegendNANA
10:00 -0.7 -1.7 93   LegendMM LegendMM LegendMM 99.85     LegendNANA
11:00 -0.5 -1.5 93   LegendMM LegendMM LegendMM 99.93     LegendNANA
12:00 0.0 -1.7 88   LegendMM LegendMM LegendMM 99.93     LegendNANA
13:00 0.5 -1.9 84   LegendMM LegendMM LegendMM 99.94     LegendNANA
14:00 0.2 -2.9 80   LegendMM LegendMM LegendMM 99.96     LegendNANA
15:00 -0.2 -4.0 76   LegendMM LegendMM LegendMM 100.04     LegendNANA
16:00 -0.4 -4.6 73   LegendMM LegendMM LegendMM 100.09     LegendNANA
17:00 -0.6 -4.3 76   LegendMM LegendMM LegendMM 100.18     LegendNANA
18:00 -0.8 -4.2 78   LegendMM LegendMM LegendMM 100.16     LegendNANA
19:00 -0.4 -4.8 72   LegendMM LegendMM LegendMM 100.22     LegendNANA
20:00 -0.6 -4.3 76   LegendMM LegendMM LegendMM 100.23     LegendNANA
21:00 -0.6 -3.5 81   LegendMM LegendMM LegendMM 100.16     LegendNANA
22:00 -0.7 -2.8 86   LegendMM LegendMM LegendMM 100.12     LegendNANA
23:00 -1.1 -3.3 85   LegendMM LegendMM LegendMM 100.02     LegendNANA

Notes on Data Quality.

Legend

  • E = Estimated
  • M = Missing
  • NA = Not Available*
  • [empty] = Indicates an unobserved value
Date modified: